Weather History for Tulsa Jones, OK

Change the Weather History Date:

Sunday, November 27, 2011

  Actual Average (KTUL) Record (KTUL)
Temperature  
Mean Temperature 38 °F 45 °F  
Max Temperature 46 °F 55 °F 77 °F (1927)
Min Temperature 30 °F 35 °F 16 °F (1938)
Degree Days  
Heating Degree Days 27 20  
Month to date heating degree days 387  
Since 1 July heating degree days 573  
Moisture  
Dew Point 20 °F    
Average Humidity 49    
Maximum Humidity 72    
Minimum Humidity 35    
Precipitation  
Precipitation 0.00 in 0.08 in 2.50 in (1896)
Month to date precipitation 2.56  
Year to date precipitation 38.23  
Sea Level Pressure  
Sea Level Pressure 30.27 in    
Wind  
Wind Speed 7 mph (NNW)    
Max Wind Speed 10 mph    
Max Gust Speed 21 mph    
Visibility 10 miles    
Events      
T = Trace of Precipitation, MM = Missing Value Source: NWS Daily Summary

Daily Weather History Graph

Daily Weather History Graph

Search for Another Location

Airport:

Trip Planner

Search our weather history database for the weather conditions in past years. The results will help you decide how hot, cold, wet, or windy it might be!

Date:

Astronomy

Nov. 27, 2011 Rise Set
Actual Time 7:12 AM CST 5:10 PM CST
Civil Twilight 6:44 AM CST 5:38 PM CST
Nautical Twilight 6:12 AM CST 6:10 PM CST
Astronomical Twilight 5:41 AM CST 6:40 PM CST
Moon 9:37 AM CST (11/27) 7:50 PM CST (11/27)
Length of Visible Light 10h 54m
Length of Day
9h 58m
Waxing Crescent, 8% of the Moon is Illuminated
Nov 27
Waxing Crescent
Dec 2
First Quarter
Dec 10
Full
Dec 17
Last Quarter
Dec 24
New

Hourly Weather History & Observations

Time (CST) Temp. Windchill Dew Point Humidity Pressure Visibility Wind Dir Wind Speed Gust Speed Precip Events Conditions
12:53 AM 42.1 °F 36.1 °F 18.0 °F 38% 30.24 in 10.0 mi NNW 10.4 mph 20.7 mph N/A   Clear
1:53 AM 39.9 °F 33.4 °F 19.0 °F 43% 30.24 in 10.0 mi NNW 10.4 mph 20.7 mph N/A   Clear
2:53 AM 39.0 °F 32.3 °F 19.9 °F 46% 30.24 in 10.0 mi North 10.4 mph 18.4 mph N/A   Clear
4:53 AM 37.0 °F 30.4 °F 19.9 °F 50% 30.26 in 10.0 mi NNW 9.2 mph - N/A   Clear
5:53 AM 35.1 °F 30.1 °F 19.9 °F 54% 30.27 in 10.0 mi NW 5.8 mph - N/A   Clear
6:53 AM 34.0 °F 28.0 °F 19.0 °F 54% 30.29 in 10.0 mi NNW 6.9 mph - N/A   Clear
7:53 AM 34.0 °F 28.0 °F 18.0 °F 52% 30.31 in 10.0 mi NNW 6.9 mph - N/A   Clear
8:53 AM 37.0 °F 31.0 °F 18.0 °F 46% 30.32 in 10.0 mi NNW 8.1 mph - N/A   Clear
9:53 AM 39.0 °F 32.8 °F 18.0 °F 43% 30.33 in 10.0 mi NNW 9.2 mph 16.1 mph N/A   Clear
10:53 AM 39.9 °F 33.9 °F 19.0 °F 43% 30.33 in 10.0 mi North 9.2 mph 19.6 mph N/A   Clear
12:53 PM 44.1 °F 38.6 °F 19.9 °F 38% 30.27 in 10.0 mi NNW 10.4 mph 18.4 mph N/A   Clear
1:53 PM 45.0 °F 40.1 °F 19.9 °F 37% 30.25 in 10.0 mi NNW 9.2 mph - N/A   Clear
2:53 PM 46.0 °F 41.0 °F 19.9 °F 35% 30.24 in 10.0 mi North 10.4 mph 16.1 mph N/A   Clear
3:53 PM 46.0 °F 43.1 °F 21.0 °F 37% 30.25 in 10.0 mi NNW 5.8 mph - N/A   Clear
4:53 PM 44.1 °F 40.1 °F 19.9 °F 38% 30.25 in 10.0 mi Variable 6.9 mph - N/A   Clear
5:53 PM 41.0 °F - 21.0 °F 45% 30.26 in 10.0 mi Calm Calm - N/A   Clear
6:53 PM 36.0 °F - 23.0 °F 59% 30.27 in 10.0 mi Calm Calm - N/A   Clear
7:53 PM 36.0 °F - 21.9 °F 57% 30.27 in 10.0 mi Calm Calm - N/A   Clear
8:53 PM 34.0 °F - 21.9 °F 61% 30.26 in 10.0 mi Calm Calm - N/A   Clear
9:53 PM 30.0 °F - 21.9 °F 72% 30.25 in 10.0 mi Calm Calm - N/A   Clear
10:53 PM 30.0 °F - 21.0 °F 69% 30.25 in 10.0 mi Calm Calm - N/A   Clear
11:53 PM 30.0 °F - 21.0 °F 69% 30.24 in 10.0 mi Calm Calm - N/A   Clear